Tracking 30995 objects as of 7-Jul-2025
HD Live streaming from Space Station
objects crossing your sky now

FENGYUN 1C DEB

Track FENGYUN 1C DEB now!
10-day predictions


NORAD ID: 30280
Int'l Code: 1999-025YR
Perigee: 847.8 km
Apogee: 966.7 km
Inclination: 98.8 °
Period: 103.0 minutes
Semi major axis: 7278 km
RCS: 0.043 m2 (small)
Launch date: May 10, 1999
Source: People's Republic of China (PRC)
Launch site: Taiyaun Space Center, China (TSC)

Note: This is SATELLITE DEBRIS
Your satellite tracking list
SIRIUS 3
Track 1 satellite(s)




NASA's NSSDC Master Catalog

Two Line Element Set (TLE):
1 30280U 99025YR  25187.46140081  .00000546  00000-0  40112-3 0  9991
2 30280  98.7620 183.8481 0081716  51.5662 100.6156 13.98177802941805
Source of the keplerian elements: AFSPC